Temp
45 47 46 47 47 47 43 49 44 46 50 57 61 64 62 59 61 60 60 60 60 62 62 60 59 61 62 63 61 60 60 59 60 60 58 57 55 56 56 56 56 56 55 54
43 49 47 46 51 50 49 50 50 52 52 63 59 56 55 56 60 59 61 62 63 63 63 62 64 64 64 64 62 61 61 61 62 58 58 57 56 55 55 55 54 54 53 53
35 44 45 40 49 52 53 52 53 45 56 64 59 58 62 65 65 62 62 63 62 64 65 67 67 68 64 65 62 61 63 63 62 60 59 58 58 55 54 53 52 52 52 52
34 38 31 48 50 53 54 57 57 58 61 63 64 64 66 66 61 61 61 64 63 65 66 66 68 64 68 62 62 62 62 64 63 61 60 59 56 57 53 52 52 51 51 51
35 33 46 51 55 49 48 50 55 56 60 62 64 56 59 60 61 65 66 66 64 63 63 67 65 66 66 60 63 62 63 64 63 62 60 57 57 57 52 51 50 50 51 50
30 29 31 44 54 60 56 45 59 58 58 58 54 48 59 64 61 62 63 63 62 62 61 60 61 64 63 62 63 62 65 65 64 62 62 58 59 54 51 50 51 51 50 49
39 37 43 51 56 56 41 46 54 55 56 55 52 56 61 57 60 61 61 61 62 59 59 60 60 58 61 65 63 66 67 63 62 61 61 61 54 50 50 50 50 49 49 48
37 35 34 53 52 52 55 62 55 56 57 56 56 60 60 61 59 60 60 60 60 59 58 59 57 56 59 61 67 65 61 60 60 60 61 56 56 51 50 49 47 46 46 46
43 45 55 54 55 57 57 57 58 54 57 58 58 59 62 60 59 60 60 60 58 57 57 57 56 55 55 61 59 58 56 57 56 56 58 56 55 51 48 47 47 46 46 45
37 49 44 44 57 58 60 62 65 66 63 56 59 59 59 60 60 59 59 58 58 57 57 56 56 56 54 56 56 55 55 54 53 54 52 52 54 53 51 48 46 46 45 44
36 41 47 50 50 52 54 55 57 59 57 58 57 58 58 58 59 59 59 59 56 56 55 56 55 55 55 54 54 53 53 51 51 53 53 50 51 51 51 49 51 47 46 45
36 46 46 48 53 56 53 54 57 58 56 58 56 57 58 57 58 58 58 57 57 57 55 55 54 54 54 53 52 52 51 50 51 51 49 50 49 45 50 50 50 50 50 47
45 51 52 53 55 56 53 54 58 57 57 56 59 55 56 55 56 57 57 56 56 57 56 54 54 54 54 52 51 51 51 49 50 50 50 48 47 48 44 45 49 50 50 50
52 50 47 51 50 55 56 59 58 59 59 59 57 58 56 55 56 55 55 58 57 56 55 53 53 53 53 51 50 50 49 51 51 50 49 47 46 45 45 44 41 41 47 47
49 51 50 52 53 54 55 55 54 54 58 58 57 55 56 55 56 58 58 57 56 55 54 53 52 54 51 50 50 49 48 47 46 45 44 45 43 42 42 42 41 40 40 45
50 51 50 49 50 51 52 52 52 55 57 57 58 58 57 55 57 56 56 55 53 57 56 53 52 56 49 49 48 47 47 47 46 44 43 42 41 41 40 40 39 39 39 39
46 45 47 47 48 50 50 52 53 54 55 56 58 59 57 56 53 52 56 52 52 55 55 53 54 50 49 48 48 44 43 44 46 43 43 42 42 41 40 39 38 37 38 41
50 50 51 52 51 51 52 54 55 55 54 56 58 57 56 55 55 57 57 53 50 49 49 51 50 47 47 46 46 44 44 43 43 43 41 40 39 39 38 38 38 38 39 41
51 50 51 51 52 52 52 53 54 56 57 57 56 56 57 58 58 57 55 51 49 50 56 48 47 46 45 45 46 44 43 42 41 40 40 42 39 38 38 38 38 39 40 39
49 52 52 52 53 52 52 54 55 55 57 57 56 55 55 57 57 55 50 50 54 54 51 45 44 43 43 45 46 43 43 42 41 39 39 38 38 38 38 40 40 39 40 40
44 44 44 45 49 52 53 54 54 53 55 56 55 54 55 56 57 55 47 49 52 44 43 43 44 42 43 44 43 42 41 40 40 39 39 38 39 39 39 40 39 40 40 40
43 44 43 43 43 44 46 48 51 52 54 54 55 55 54 54 52 44 44 47 41 43 41 40 40 43 43 44 42 41 41 41 40 40 40 40 40 39 39 39 39 40 40 39
36 39 41 41 42 43 45 44 41 43 45 47 49 52 52 53 43 39 39 38 39 41 39 39 44 45 44 42 42 41 41 40 40 40 40 40 39 39 39 38 39 39 38 38
33 34 35 38 36 35 32 33 34 35 36 37 37 39 37 36 38 39 40 41 42 42 41 43 43 44 43 41 40 40 39 39 39 39 39 40 38 38 38 38 37 37 37 37
33 33 34 34 33 33 34 35 35 36 36 36 37 37 38 40 39 39 41 41 42 42 41 42 42 41 39 38 38 38 37 37 37 37 37 36 36 36 36 35 35 35 35 35
32 31 32 32 32 33 33 33 32 33 33 32 33 34 36 37 37 36 36 36 35 36 35 36 36 36 36 36 36 36 35 35 34 34 34 34 34 34 33 34 33 33 33 33
32 33 31 31 32 32 32 32 31 30 31 31 30 32 33 33 34 33 34 33 33 33 33 33 33 34 33 33 33 33 33 34 35 34 34 34 33 33 33 33 32 31 31 31
MSLP
1015.82 1015.73 1015.67 1015.32 1014.95 1014.95 1014.90 1014.25 1013.50 1011.17 1009.94 1008.60 1008.13 1007.67 1007.28 1007.09 1007.07 1007.20 1007.20 1007.40 1007.42 1007.47 1007.58 1007.79 1008.05 1008.30 1008.54 1008.72 1009.11 1009.63 1010.39 1010.86 1010.87 1011.15 1011.56 1011.99 1012.50 1012.86 1013.22 1013.67 1014.00 1014.35 1014.68 1014.94
1015.93 1015.29 1015.09 1014.22 1013.05 1012.74 1012.62 1012.28 1011.08 1010.92 1007.68 1007.67 1006.97 1006.93 1006.96 1006.69 1006.81 1006.82 1006.63 1006.50 1006.44 1006.71 1006.65 1006.76 1006.87 1007.08 1007.49 1007.73 1008.20 1008.72 1009.26 1009.58 1010.03 1010.53 1010.97 1011.33 1011.75 1012.24 1012.75 1013.14 1013.57 1013.94 1014.24 1014.53
1016.33 1015.73 1014.90 1012.46 1010.27 1010.73 1010.58 1010.06 1009.74 1009.34 1005.34 1006.66 1006.44 1006.46 1005.94 1005.56 1005.69 1005.81 1005.67 1005.66 1005.60 1005.37 1005.38 1005.47 1005.47 1005.55 1006.11 1006.38 1007.26 1008.03 1008.22 1008.53 1009.13 1009.67 1010.11 1010.44 1010.93 1011.67 1012.22 1012.71 1013.12 1013.49 1013.81 1014.15
1016.70 1016.16 1013.68 1009.19 1008.21 1008.27 1008.02 1007.53 1007.67 1007.12 1006.28 1005.43 1004.99 1004.95 1004.71 1004.74 1004.96 1005.00 1004.90 1004.50 1004.35 1004.38 1004.34 1004.30 1004.25 1004.76 1004.80 1005.47 1006.00 1006.74 1007.33 1007.57 1008.03 1008.74 1009.31 1009.81 1010.38 1010.92 1011.50 1012.04 1012.63 1013.05 1013.34 1013.60
1016.56 1015.09 1011.12 1008.29 1008.01 1007.80 1007.36 1006.53 1006.27 1006.39 1005.59 1004.65 1004.58 1004.90 1004.03 1004.37 1003.95 1003.51 1003.24 1003.12 1003.24 1003.14 1003.23 1003.31 1003.63 1003.55 1004.03 1004.72 1005.01 1005.53 1005.92 1006.30 1006.70 1007.47 1008.37 1009.11 1009.74 1010.16 1010.84 1011.49 1012.09 1012.49 1012.69 1013.08
1016.01 1014.11 1011.09 1008.13 1006.55 1006.54 1006.50 1005.17 1005.42 1005.04 1004.93 1004.68 1004.91 1005.19 1003.84 1002.76 1002.78 1002.72 1002.40 1002.27 1002.46 1002.46 1002.53 1002.71 1002.72 1002.78 1003.39 1003.76 1004.16 1004.40 1004.56 1004.62 1005.47 1006.20 1007.07 1007.98 1008.73 1009.55 1010.21 1010.80 1011.32 1011.87 1012.34 1012.49
1013.73 1012.89 1009.10 1007.60 1006.12 1006.28 1006.50 1005.96 1004.38 1004.10 1004.41 1004.66 1005.04 1004.49 1003.07 1002.59 1002.24 1002.17 1001.95 1001.92 1001.93 1002.02 1002.14 1002.05 1002.05 1002.43 1002.74 1002.84 1002.78 1002.62 1002.96 1003.74 1004.39 1004.92 1005.70 1006.50 1007.70 1008.74 1009.47 1010.39 1011.03 1011.50 1011.87 1012.18
1012.71 1011.97 1009.14 1007.03 1006.88 1006.46 1005.71 1004.90 1004.46 1004.40 1004.58 1004.61 1004.22 1003.50 1002.69 1002.30 1001.96 1001.78 1001.77 1001.87 1001.89 1002.06 1002.01 1001.91 1001.97 1002.30 1002.24 1002.09 1001.54 1001.88 1002.45 1002.91 1003.51 1004.05 1004.82 1005.74 1006.69 1007.70 1008.74 1009.73 1010.53 1011.14 1011.62 1012.02
1011.26 1009.03 1008.02 1007.31 1006.36 1005.64 1005.53 1005.47 1004.53 1004.35 1004.14 1004.36 1003.99 1003.50 1002.71 1002.31 1002.00 1001.89 1001.83 1001.78 1001.72 1001.76 1001.75 1001.72 1001.62 1001.78 1001.83 1001.06 1001.47 1001.60 1002.06 1002.47 1002.97 1003.59 1004.29 1005.03 1006.03 1007.09 1008.29 1009.15 1009.99 1010.74 1011.20 1011.69
1012.52 1009.04 1009.78 1009.19 1008.13 1007.22 1005.98 1005.54 1004.45 1003.70 1003.76 1003.79 1003.76 1002.84 1002.65 1002.18 1001.71 1001.62 1001.56 1001.54 1001.35 1001.38 1001.51 1001.39 1001.31 1001.30 1001.22 1001.04 1001.14 1001.48 1001.89 1002.25 1002.67 1003.25 1003.99 1004.70 1005.54 1006.35 1007.27 1008.38 1009.29 1009.95 1010.61 1011.09
1012.79 1011.52 1010.48 1008.89 1008.05 1008.00 1007.28 1006.59 1006.15 1004.98 1004.09 1003.23 1003.19 1002.72 1002.19 1001.95 1001.74 1001.55 1001.35 1000.92 1000.96 1001.20 1001.32 1000.99 1000.90 1000.74 1000.69 1000.89 1001.09 1001.39 1001.59 1001.98 1002.45 1002.91 1003.54 1004.37 1005.02 1005.63 1006.39 1007.09 1007.63 1008.69 1009.33 1009.90
1011.63 1010.93 1010.64 1009.53 1008.59 1007.75 1007.37 1006.68 1005.80 1005.29 1003.95 1003.19 1002.75 1002.53 1002.22 1001.87 1001.29 1001.16 1001.01 1000.78 1000.85 1000.69 1000.64 1000.27 1000.67 1000.64 1000.43 1000.62 1001.04 1001.40 1001.78 1002.10 1002.37 1002.81 1003.45 1004.02 1004.85 1005.91 1006.37 1006.67 1007.33 1007.87 1008.43 1009.17
1010.36 1009.53 1009.12 1008.63 1007.98 1007.49 1006.31 1005.96 1005.23 1004.58 1004.31 1003.62 1002.40 1002.35 1002.28 1001.88 1001.22 1000.74 1000.75 1000.73 1000.67 1000.36 1000.18 1000.35 1000.30 1000.25 1000.00 1000.32 1000.69 1001.08 1001.41 1001.80 1002.15 1002.54 1003.11 1003.84 1004.67 1005.43 1006.50 1007.35 1007.63 1008.03 1008.50 1009.06
1008.79 1008.55 1008.04 1007.39 1006.01 1005.27 1004.80 1004.56 1004.16 1003.70 1003.35 1003.00 1002.60 1001.74 1001.30 1001.13 1000.75 1000.59 1000.73 1000.17 1000.00 1000.00 1000.02 1000.00 999.97 999.97 999.57 999.93 1000.38 1000.70 1000.96 1001.26 1001.71 1002.14 1002.65 1003.51 1004.33 1005.23 1006.04 1006.95 1007.80 1008.53 1008.79 1009.15
1007.50 1006.43 1006.05 1005.29 1005.14 1004.54 1004.27 1003.94 1003.47 1002.77 1001.92 1001.72 1001.69 1001.30 1000.82 1000.63 1000.11 999.87 999.53 999.25 999.22 999.38 999.33 999.28 999.27 999.05 998.86 999.14 999.75 1000.32 1000.78 1001.22 1001.57 1002.07 1002.69 1003.40 1004.26 1005.19 1006.00 1006.83 1007.59 1008.22 1008.76 1008.86
1005.39 1004.89 1004.88 1004.76 1003.58 1002.94 1003.09 1002.84 1002.34 1001.40 1000.59 1000.54 1000.24 999.88 999.53 999.35 999.37 999.15 998.75 998.56 999.03 998.94 998.55 998.51 998.46 997.97 998.33 998.96 999.24 999.91 1000.37 1000.78 1001.39 1002.15 1003.00 1003.76 1004.49 1005.30 1006.08 1006.73 1007.35 1007.74 1008.10 1008.50
1004.23 1003.35 1002.66 1002.16 1002.13 1001.81 1001.42 1001.43 1001.19 1000.72 1000.21 999.77 999.39 998.88 998.32 998.18 998.24 998.23 997.97 997.91 998.10 997.80 997.78 997.53 997.49 997.69 997.84 998.36 998.94 999.63 1000.28 1000.88 1001.22 1002.01 1002.71 1003.37 1004.08 1004.84 1005.56 1006.31 1007.07 1007.63 1007.90 1008.08
1002.69 1001.95 1001.31 1000.91 1000.38 1000.28 999.57 999.34 999.23 999.04 998.63 998.31 997.96 997.99 998.06 998.02 997.88 997.48 997.36 997.51 997.40 997.23 996.97 996.61 997.18 997.30 997.54 997.87 998.43 999.23 999.98 1000.65 1001.31 1001.91 1002.71 1003.52 1004.18 1004.80 1005.51 1006.11 1006.61 1007.06 1007.47 1007.75
1000.47 999.92 999.34 999.05 998.66 998.43 998.45 998.20 997.78 997.57 997.47 997.29 996.98 996.87 996.92 996.83 996.79 996.59 996.52 996.89 996.87 996.77 995.54 995.93 996.02 996.51 996.83 997.26 997.88 998.67 999.53 1000.35 1001.18 1002.00 1002.71 1003.49 1004.27 1004.82 1005.40 1005.94 1006.45 1006.90 1007.36 1007.74
1000.10 999.00 997.91 997.39 996.73 996.86 996.75 996.55 996.55 996.36 996.27 995.74 995.67 995.74 995.59 995.55 995.69 996.04 996.15 996.23 995.61 995.25 994.94 995.35 995.85 996.27 996.51 997.14 997.56 998.50 999.34 1000.10 1000.95 1001.91 1002.74 1003.68 1004.42 1005.06 1005.48 1005.88 1006.38 1006.71 1007.03 1007.37
1000.57 999.62 998.71 997.89 996.68 995.66 995.56 995.34 995.27 995.27 994.38 994.09 994.79 994.45 994.38 994.43 994.68 994.99 995.55 995.27 994.18 994.59 994.81 995.12 995.35 995.85 996.35 996.90 997.57 998.47 999.47 1000.39 1001.17 1002.07 1002.77 1003.62 1004.50 1004.92 1005.32 1005.52 1005.95 1006.54 1007.13 1007.29
1000.48 999.51 998.49 997.75 996.97 995.79 995.32 995.09 994.57 993.95 993.47 992.95 992.97 992.73 993.04 993.34 993.75 994.32 994.37 994.19 993.99 994.56 994.85 995.32 995.56 995.86 996.28 997.02 997.58 998.34 999.40 1000.24 1001.24 1002.11 1002.91 1003.74 1004.24 1004.86 1005.23 1005.53 1006.04 1006.39 1006.82 1007.51
1000.55 999.63 998.67 997.77 996.94 995.96 995.25 995.09 994.90 994.36 993.45 992.84 992.39 992.17 992.23 992.57 993.43 994.39 994.37 994.28 994.40 994.91 995.01 995.57 995.95 996.21 996.70 997.71 998.59 999.20 999.87 1000.56 1001.40 1002.20 1002.90 1003.65 1004.16 1004.69 1005.23 1005.37 1006.13 1006.55 1006.70 1007.11
1000.76 1000.05 999.28 998.23 997.61 997.00 996.53 996.47 995.93 995.24 994.65 993.89 993.27 992.65 992.78 993.48 994.32 994.49 994.79 994.63 995.16 995.62 995.92 996.14 996.29 996.76 997.60 998.53 999.52 1000.46 1001.07 1001.66 1002.30 1002.99 1003.66 1004.14 1004.49 1004.84 1005.16 1006.06 1006.25 1006.80 1006.91 1006.92
1001.62 1000.77 999.99 999.15 998.60 998.11 997.49 997.02 996.50 996.03 995.60 995.13 994.47 994.09 993.91 994.15 994.74 995.80 995.62 996.24 996.73 996.76 997.03 997.81 998.15 997.86 998.60 999.50 1000.49 1001.35 1002.10 1002.54 1003.17 1003.71 1004.21 1004.63 1005.34 1005.88 1005.98 1006.58 1006.77 1007.38 1007.46 1007.29
1002.26 1001.70 1001.22 1000.66 1000.08 999.47 998.80 998.10 997.75 997.44 997.15 996.84 996.61 996.53 996.42 996.58 996.95 997.09 997.47 997.50 998.25 998.43 998.69 999.23 999.77 999.90 1000.35 1001.13 1001.90 1002.41 1002.87 1003.35 1003.85 1004.40 1004.99 1005.47 1005.88 1006.34 1006.41 1006.75 1007.12 1007.46 1007.53 1007.15
1003.47 1002.87 1002.38 1001.77 1001.17 1000.69 1000.14 999.62 999.21 999.20 999.15 999.33 999.10 998.90 998.64 998.63 998.70 998.75 999.03 999.60 999.97 1000.18 1000.43 1000.83 1001.17 1001.55 1002.04 1002.49 1003.02 1003.53 1003.97 1004.43 1004.96 1005.55 1005.55 1005.70 1006.10 1006.48 1006.68 1006.86 1007.01 1007.22 1007.42 1007.18
Wind_Speed
6 6 4 6 9 10 13 16 14 2 21 17 20 20 13 5 6 7 10 8 10 12 11 10 9 9 10 11 11 10 11 11 14 12 10 8 8 8 7 7 7 7 6 5
6 7 8 17 21 18 17 18 22 19 34 16 14 7 9 10 9 9 10 11 11 11 10 12 14 14 13 13 12 11 13 15 12 9 10 11 9 9 8 7 7 6 6 6
5 3 8 17 20 23 18 16 15 19 32 18 16 12 19 21 16 13 11 10 10 13 14 14 15 15 15 15 9 11 14 13 12 11 12 12 10 8 9 8 6 7 7 6
5 3 15 8 2 6 19 22 21 22 24 23 20 17 19 15 11 10 11 12 10 11 11 13 13 9 14 9 13 14 14 14 12 12 13 10 10 12 8 6 8 6 7 7
7 10 20 29 18 4 5 10 10 17 24 26 22 8 15 7 13 18 17 12 10 9 10 11 10 14 13 9 13 14 16 16 15 14 13 10 13 13 7 7 6 6 5 7
3 7 15 3 4 13 5 20 12 14 15 16 2 6 13 13 7 12 14 10 9 10 7 8 10 12 11 13 14 15 17 18 14 14 14 14 14 10 6 5 5 5 6 6
16 18 16 7 11 4 4 8 3 3 7 7 5 9 9 6 8 7 8 8 6 3 7 9 7 7 12 14 16 18 17 11 13 14 16 15 10 7 7 6 6 6 6 5
9 14 27 5 3 22 4 16 1 2 4 4 8 8 7 7 8 7 5 5 5 5 7 7 5 6 10 13 16 11 9 12 13 14 12 10 14 8 8 8 7 6 6 4
12 13 7 5 5 6 2 5 10 6 8 8 11 7 9 6 5 5 6 6 4 5 7 6 5 6 8 12 6 7 8 11 11 10 11 11 12 11 7 7 6 6 5 4
14 14 19 26 22 13 16 19 19 20 17 7 11 9 8 8 8 5 5 6 3 4 7 8 5 6 8 6 6 7 9 8 7 10 9 8 7 9 9 8 6 6 5 5
16 21 20 16 19 23 26 24 23 19 11 12 9 10 8 7 8 8 8 7 2 5 7 10 5 6 6 6 6 6 7 6 7 7 10 9 7 9 8 6 8 8 6 6
19 20 19 23 25 28 22 22 23 22 12 10 7 10 9 9 8 8 8 5 6 8 7 9 5 7 6 4 6 6 6 5 6 7 6 8 8 5 4 5 11 9 10 7
21 23 22 25 25 24 19 21 20 15 17 15 14 5 8 6 7 8 7 7 8 9 8 7 7 8 6 6 7 8 7 7 6 7 8 9 7 8 7 5 6 9 11 10
21 22 24 27 21 19 21 20 22 23 22 18 13 12 7 7 7 6 8 10 9 8 8 7 7 10 7 7 7 7 7 10 8 7 8 7 7 6 6 7 6 3 5 6
28 31 31 30 28 27 26 24 25 23 18 16 11 10 9 9 10 12 9 8 7 7 8 7 8 12 8 8 9 8 7 5 5 5 5 6 6 5 5 5 5 4 3 5
27 28 27 28 28 28 26 26 24 23 18 14 14 13 10 10 11 10 9 7 5 10 11 9 9 13 8 8 8 6 6 9 8 6 6 5 5 6 5 5 5 5 4 4
22 25 27 26 25 28 27 21 21 19 17 15 16 17 12 10 8 8 12 7 9 12 13 8 12 6 8 9 9 5 5 6 12 7 7 7 7 7 6 5 5 4 4 5
25 28 29 29 26 24 25 22 19 18 16 16 14 14 13 13 16 15 13 7 8 9 9 9 7 7 7 8 9 7 7 7 6 7 5 5 5 5 5 5 5 5 3 3
24 25 26 26 27 26 23 23 22 22 19 18 15 16 17 18 18 15 9 8 9 11 16 8 13 12 10 12 12 8 8 8 7 5 5 8 5 5 5 5 5 4 4 3
14 23 24 26 27 24 24 23 24 22 22 19 17 15 17 19 18 14 8 12 12 9 7 7 10 8 8 12 14 8 9 9 9 7 6 5 5 5 4 5 5 4 4 4
15 15 15 12 16 22 21 22 21 21 21 18 19 20 20 20 17 15 9 10 12 7 6 11 8 6 7 11 9 7 8 7 7 7 6 6 6 5 5 5 5 4 3 3
13 13 15 15 14 16 13 11 13 16 21 21 20 18 16 17 13 7 6 10 2 11 6 4 4 9 11 15 8 9 9 9 8 7 6 6 5 5 4 4 4 4 3 2
12 13 13 12 13 16 14 8 8 11 13 11 13 14 13 11 5 5 6 1 4 7 6 5 14 19 19 9 7 8 9 9 8 7 7 6 5 5 4 5 4 3 4 4
13 10 10 8 6 8 8 7 5 7 6 6 5 4 6 7 7 6 7 12 15 11 9 11 18 23 18 9 10 9 9 8 8 7 7 8 5 5 5 4 4 3 3 4
9 10 10 9 8 7 8 7 7 8 9 10 12 11 12 8 7 6 9 10 17 14 13 22 23 24 12 11 10 10 8 8 7 7 7 6 5 4 4 3 4 3 2 3
11 8 8 11 9 7 7 8 9 9 8 10 10 10 10 10 10 11 11 15 13 16 11 10 10 11 11 10 9 9 8 8 7 6 6 5 5 4 4 4 3 2 2 2
11 18 11 10 10 10 10 12 12 12 12 10 12 11 11 12 14 14 17 13 11 11 11 10 9 11 9 9 8 7 7 7 8 5 4 4 4 3 3 3 3 2 2 3
Wind_Direction
236 238 273 248 240 221 209 224 217 138 242 256 261 275 276 274 293 282 257 232 221 216 216 213 208 210 211 215 200 188 197 202 215 211 204 199 194 196 197 196 203 207 207 223
268 270 256 265 257 244 236 232 245 253 264 250 248 281 285 265 265 262 259 242 227 235 220 209 210 212 213 215 209 187 196 211 212 200 196 200 197 193 188 197 201 196 204 211
255 247 302 275 248 245 243 219 225 223 251 269 261 243 248 260 267 248 251 245 232 220 216 220 213 208 209 211 182 196 206 209 206 201 203 201 193 181 192 194 183 202 201 198
231 101 246 251 281 251 234 240 227 243 256 255 259 253 250 247 257 260 248 244 234 228 228 226 224 209 220 190 187 195 209 209 204 199 207 197 186 195 187 173 191 191 200 203
220 217 275 276 289 265 199 267 221 226 247 257 265 285 267 226 219 236 244 245 234 221 223 236 216 214 209 193 199 198 208 211 204 195 200 190 198 197 180 167 178 185 184 190
161 216 233 307 212 260 203 274 225 215 243 255 310 279 277 254 242 243 244 236 232 237 235 222 224 212 203 209 208 206 211 213 198 192 194 195 201 185 160 166 179 172 189 193
221 240 264 227 271 72 128 233 313 154 247 268 194 213 255 301 271 244 258 252 236 242 239 240 249 193 212 218 214 214 217 198 193 190 193 193 172 157 156 163 162 180 187 188
217 230 255 160 259 233 247 271 257 317 293 261 238 271 264 286 296 289 277 302 301 278 272 279 254 202 224 225 228 220 199 195 197 193 189 173 174 160 156 158 169 180 178 203
207 233 264 300 240 240 164 239 289 292 274 259 277 270 293 286 298 295 283 282 268 259 280 282 269 213 231 244 218 196 181 191 188 180 181 173 169 162 146 159 165 176 181 191
346 292 316 308 308 332 316 302 290 286 284 254 254 255 252 276 292 277 242 246 245 284 279 278 260 247 236 255 208 184 194 192 176 173 163 161 160 163 160 166 171 177 178 191
284 290 306 295 314 321 311 315 318 317 278 259 246 266 244 248 255 258 269 282 247 242 255 273 278 269 255 236 193 196 189 174 172 168 171 161 164 166 169 182 174 175 190 175
260 262 258 273 284 291 292 299 305 303 304 311 289 273 268 261 249 244 248 264 274 272 271 278 262 268 265 208 190 180 179 172 173 162 162 159 154 129 69 151 172 169 159 151
257 260 263 269 271 269 277 281 287 303 305 302 303 255 273 264 267 265 265 264 263 258 266 269 276 278 248 203 187 190 186 174 172 164 166 161 159 157 148 54 122 149 155 160
249 260 260 260 259 252 253 273 283 276 276 279 267 280 260 256 271 265 254 243 243 250 256 244 244 249 230 200 196 201 192 184 177 174 165 155 157 152 146 158 159 164 200 166
252 251 254 263 267 270 276 277 271 265 260 266 262 252 267 274 276 267 256 249 257 267 267 246 238 251 206 186 186 188 175 174 162 142 135 138 129 130 139 148 158 152 140 181
253 253 253 252 260 263 261 263 263 263 263 259 260 260 254 249 257 266 275 275 249 269 248 237 244 252 181 184 180 171 171 152 144 141 135 133 139 148 151 156 164 175 174 177
261 261 256 255 252 257 258 252 248 253 258 258 264 277 283 276 277 270 274 246 233 252 254 235 241 208 183 180 175 160 147 146 149 139 153 159 160 165 164 158 157 167 181 183
248 252 257 258 257 254 260 252 254 253 248 255 261 262 260 263 264 266 266 261 247 257 241 231 234 199 182 168 159 154 155 155 152 155 137 142 151 145 149 157 163 164 170 181
263 262 260 256 254 255 255 259 261 261 260 259 259 261 264 266 267 265 259 251 247 260 270 203 200 179 174 173 157 152 151 148 142 137 140 145 139 144 149 151 155 157 154 156
302 273 276 275 265 255 255 255 257 258 256 253 250 252 263 264 262 256 224 237 242 235 253 191 171 178 162 164 149 148 147 149 147 140 134 131 140 148 148 144 142 149 153 161
286 294 302 312 288 275 263 263 263 262 261 254 251 250 249 252 252 245 234 244 250 210 198 173 172 154 150 144 131 127 127 125 125 134 135 138 139 139 144 140 136 137 168 160
300 288 283 288 284 281 284 287 272 259 256 255 252 247 246 248 248 217 237 234 161 159 143 136 132 137 130 123 125 127 127 126 126 127 125 132 130 133 125 115 129 121 116 144
306 301 297 297 296 292 291 292 295 282 273 268 262 250 242 250 198 181 230 100 115 126 108 114 134 119 107 97 98 103 109 115 118 117 118 121 115 118 129 115 106 133 145 154
320 325 331 329 337 3 9 355 353 3 360 19 39 80 124 111 73 60 85 108 107 101 110 118 110 100 96 95 92 90 88 88 90 92 96 104 99 85 81 95 110 145 125 109
347 350 358 2 7 2 0 0 17 25 34 42 46 50 64 59 91 90 93 87 89 93 90 89 87 88 87 85 86 87 86 86 85 82 74 74 75 77 84 91 89 99 112 100
13 10 10 17 15 12 24 34 40 30 34 40 44 44 54 60 71 76 74 75 69 70 69 71 68 70 73 77 81 84 83 83 82 90 100 102 107 107 107 109 102 82 48 37
24 30 18 21 20 23 33 48 56 49 45 47 55 46 56 65 58 61 60 61 60 63 62 59 59 65 71 70 69 69 72 76 79 79 89 99 101 95 87 77 66 49 21 13